Location: Dobertshof
(49.8097°N, 11.8206°E)
Time: 05:38:36
(UTC+00:00)

Daily predictions for brighter satellites

Satellite Brightness Start Highest point End
(mag) Time Altitude Azimuth Time Altitude Azimuth Time Altitude Azimuth
USA 234 4.0 03:01:50 10° ENE 03:08:04 45° SE 03:08:17 45° SE
Cosmos 2297 Rocket 3.8 03:41:26 24° N 03:41:26 24° N 03:43:48 10° NNE
Cosmos 1464 Rocket 4.3 03:41:29 54° N 03:41:29 54° N 03:46:07 10° N
Cosmos 2227 Rocket 3.6 03:45:37 26° N 03:45:37 26° N 03:48:14 10° NNE
CZ-4C R/B 3.0 03:48:11 57° SW 03:48:11 57° SW 03:55:38 10° SSE
GEOS 3 Rocket 4.0 03:44:41 10° SE 03:48:39 56° SSE 03:48:39 56° SSE
Cosmos 1624 Rocket 4.0 04:01:11 79° SSE 04:01:27 83° ESE 04:06:50 10° NNE
Cosmos 1943 3.3 04:01:23 55° N 04:02:32 71° ENE 04:08:08 10° SE
Cosmos 2056 Rocket 3.3 04:07:01 88° SE 04:07:02 88° ESE 04:12:13 10° NNE
Nadezhda 4 Rocket 3.8 04:06:11 58° NW 04:07:20 72° W 04:13:27 10° S
Cosmos 676 Rocket 3.9 04:08:26 75° SSW 04:08:26 75° SSW 04:13:21 10° SSE
Cosmos 1607 4.3 04:09:08 46° NNW 04:09:08 46° NNW 04:14:32 10° NE
BREEZE-M DEB (TANK) 4.1 04:06:11 30° SW 04:10:23 59° SSE 04:14:06 10° E
COSMO-SKYMED 1 2.7 04:07:54 10° SSE 04:12:09 74° E 04:12:09 74° E
Geosat 3.8 04:09:49 10° SSE 04:14:51 80° WSW 04:15:08 76° WNW
Cosmos 1954 Rocket 3.9 04:17:31 71° WSW 04:17:33 71° WSW 04:22:49 10° SSE
STARLINK 1046 4.4 04:22:37 37° SE 04:22:37 37° SE 04:24:56 10° SE
Cosmos 1703 Rocket 3.4 04:21:51 85° SSW 04:21:51 85° SSW 04:26:11 10° S
Okean O Rocket 3.3 04:17:51 10° NNE 04:21:50 33° E 04:25:49 10° SSE
ATLAS 5 CENTAUR R/B 2.9 04:24:33 29° N 04:24:33 29° N 04:28:06 10° NE
Cosmos 1603 3.6 04:23:04 57° WNW 04:24:00 67° WSW 04:29:40 10° SSE
CZ-2C R/B 4.3 04:19:48 10° N 04:20:41 15° N 04:20:41 15° N
STARLINK 1039 4.3 04:25:35 39° SSE 04:25:35 39° SSE 04:28:01 10° SE
Cosmos 1420 Rocket 4.4 04:20:41 10° S 04:25:49 64° ESE 04:30:58 10° NNE
STARLINK 1045 4.3 04:26:54 40° SSE 04:26:54 40° SSE 04:29:24 10° SE
SJ-12 4.4 04:22:20 10° NNE 04:26:26 59° E 04:30:29 10° S
NOSS 2-1 (C) 4.5 04:26:32 50° W 04:27:26 55° SW 04:34:39 10° SSE
ATLAS CENTAUR R/B 3.5 04:27:13 16° N 04:28:19 18° NNE 04:31:13 10° ENE
Cosmos 2026 Rocket 4.0 04:23:06 10° N 04:29:17 81° E 04:35:32 10° SSE
Cosmos 2082 4.4 04:31:05 34° NNW 04:31:05 34° NNW 04:35:20 10° NNE
SKYMED 3 4.4 04:32:06 10° S 04:36:24 65° WSW 04:36:34 64° W
Meteor 2-11 Rocket 4.5 04:30:42 10° SSW 04:36:37 51° WNW 04:42:36 10° N
Cosmos 1741 Rocket 4.1 04:33:42 26° NNW 04:36:44 74° ENE 04:41:57 10° SSE
Cosmos 1869 Rocket 3.7 04:36:58 10° S 04:41:15 72° E 04:45:36 10° NNE
ALOS 2.4 04:38:59 10° NNE 04:43:41 75° ESE 04:48:20 10° S
STARLINK 1030 4.5 04:47:30 25° S 04:47:30 25° S 04:49:13 10° SSE
STARLINK 1033 4.5 04:48:24 24° S 04:48:24 24° S 04:50:04 10° SSE
STARLINK 1031 4.5 04:48:37 24° S 04:48:37 24° S 04:50:18 10° SSE
STARLINK 1024 4.5 04:48:48 25° S 04:48:48 25° S 04:50:34 10° SSE
STARLINK 1035 4.5 04:49:02 24° S 04:49:02 24° S 04:50:44 10° SSE
STARLINK 1032 4.5 04:49:16 24° S 04:49:16 24° S 04:50:58 10° SSE
Cosmos 1340 3.4 04:44:44 10° S 04:48:24 53° E 04:52:06 10° NNE
STARLINK 1011 4.5 04:49:25 25° S 04:49:25 25° S 04:51:11 10° SSE
STARLINK 1036 4.5 04:49:42 24° S 04:49:42 24° S 04:51:24 10° SSE
STARLINK 1047 4.5 04:50:07 24° S 04:50:07 24° S 04:51:50 10° SSE
ADEOS Rocket 4.1 04:43:15 10° SE 04:49:44 46° ENE 04:55:37 10° N
Cosmos 1634 Rocket 3.9 04:44:31 10° S 04:50:44 85° WNW 04:56:58 10° N
Okean 1 3.1 04:49:38 42° NNW 04:50:52 71° W 04:54:48 10° S
USA 234 3.2 04:44:50 10° ENE 04:51:22 76° NNW 04:55:38 24° WSW
Cosmos 1452 Rocket 3.5 04:48:19 10° SSW 04:53:36 84° ESE 04:58:56 10° NNE
Cosmos 2034 Rocket 4.4 04:47:51 10° SW 04:53:46 41° WNW 04:59:45 10° N
SL-24 R/B 4.3 04:50:08 10° SSE 04:54:29 68° ENE 04:58:42 10° N
Cosmos 1850 Rocket 3.9 04:53:27 22° NNW 04:56:57 77° WSW 05:02:17 10° SSE
Meteor 1-20 Rocket 4.2 04:51:10 10° SSW 04:57:00 71° WNW 05:02:52 10° N
DMSP B5D1-3 4.5 04:52:04 10° SSE 04:57:14 88° WSW 05:02:26 10° NNW
Cosmos 1627 Rocket 4.5 04:51:16 10° NNW 04:57:25 62° W 05:03:36 10° S
Cosmos 1655 Rocket 4.3 04:53:26 10° N 04:59:40 70° ENE 05:05:52 10° SSE
SKYMED 2 4.0 04:56:27 10° SSW 05:00:29 37° W 05:00:49 37° W
NOAA 6 4.2 04:55:36 10° NNE 05:00:45 74° ESE 05:05:52 10° S
Cosmos 1602 3.5 04:57:34 10° SSW 05:01:23 80° W 05:05:15 10° N
SOZ 3.7 05:01:39 78° ENE 05:01:39 78° ENE 05:03:36 10° ESE
CZ-4B DEB 4.1 04:56:09 10° NNE 05:01:42 79° WNW 05:07:14 10° SSW
MOS 1-B 4.2 04:57:03 10° NNE 05:02:49 72° WNW 05:08:33 10° SSW
Cosmos 2263 Rocket 2.0 04:59:24 10° SSW 05:05:00 78° WNW 05:10:37 10° NNE
STARLINK 1050 4.3 05:06:33 28° SW 05:06:56 29° SW 05:10:00 10° SSE
STARLINK 1055 4.3 05:09:26 27° SW 05:09:55 28° SW 05:12:57 10° SSE
Cosmos 1484 Rocket 3.4 05:07:10 10° N 05:10:47 34° WNW 05:11:29 31° W
Okean 1-7 3.7 05:10:51 30° WNW 05:11:43 33° W 05:15:39 10° SSW
STARLINK 1022 4.4 05:11:50 26° SW 05:12:24 27° SW 05:15:24 10° SSE
Meteor 1-18 Rocket 4.3 05:07:08 10° NNW 05:12:28 50° W 05:17:48 10° SSW
Helios 1A Rocket 2.8 05:09:22 10° NNE 05:13:26 85° WNW 05:17:27 10° SSW
Cosmos 1092 Rocket 4.4 05:08:39 10° NNW 05:14:13 37° W 05:19:45 10° SSW
STARLINK 1042 4.5 05:15:06 24° WSW 05:15:46 26° SW 05:18:43 10° SSE
Cosmos 2142 Rocket 4.5 05:10:37 10° SSW 05:17:00 73° W 05:23:25 10° N
Cosmos 2227 4.4 05:16:33 10° SW 05:22:07 49° NW 05:27:44 10° NNE
Cosmos 405 3.5 05:19:14 10° N 05:22:46 59° ENE 05:26:16 10° SSE
Radarsat Rocket 4.4 05:17:25 10° NNE 05:23:34 74° ESE 05:30:23 10° SSW
Cosmos 2297 Rocket 3.8 05:23:16 15° NW 05:23:48 15° NNW 05:26:57 10° N
FENGYUN 3A 3.7 05:19:56 10° N 05:25:13 57° WNW 05:30:28 10° SW
Cosmos 2227 Rocket 3.8 05:27:28 15° NW 05:28:13 15° NNW 05:31:23 10° N
CZ-4B R/B 3.2 05:25:37 10° NNE 05:31:10 69° WNW 05:36:47 10° SSW
CZ-4C R/B 4.4 05:33:25 14° W 05:35:14 15° WSW 05:39:23 10° SW
Meteor 1-11 Rocket 4.3 05:31:44 10° S 05:37:24 66° E 05:43:15 10° NNE
Cosmos 1844 Rocket 3.8 05:32:54 10° S 05:38:15 49° ESE 05:43:36 10° NE
Cosmos 1331 Rocket 4.2 05:38:26 10° SSW 05:43:34 75° ESE 05:48:46 10° NNE
Cosmos 1943 4.4 05:43:14 15° WNW 05:46:01 22° W 05:50:11 10° SSW
Cosmos 2221 Rocket 4.3 05:43:08 10° NNW 05:47:05 33° W 05:51:02 10° SSW
COSMO-SKYMED 1 4.3 05:46:42 10° WSW 05:48:55 14° W 05:49:21 14° W
Cosmos 1346 Rocket 3.3 05:47:17 10° SW 05:50:50 34° WNW 05:54:25 10° N
H-2A R/B 2.6 05:47:30 10° N 05:51:15 79° WNW 05:55:00 10° SSW
IRIDIUM 104 4.4 05:47:00 10° N 05:52:16 87° E 05:57:29 10° S
Cosmos 332 Rocket 4.0 05:48:38 10° SSW 05:53:33 80° ESE 05:58:29 10° NNE
Cosmos 1110 Rocket 3.9 05:50:19 10° SSW 05:55:31 81° WNW 06:00:44 10° NNE
Cosmos 2082 Rocket 3.9 05:52:35 10° NNW 05:57:14 25° NE 06:01:52 10° E
Cosmos 2266 Rocket 4.0 05:51:51 10° NNW 05:58:04 68° W 06:04:09 10° S
Okean O Rocket 2.3 05:54:17 10° N 05:58:10 31° WNW 06:02:02 10° SW
CZ-2C R/B 3.8 05:53:46 10° S 05:58:30 78° WSW 06:03:18 10° NNW
USA 81 4.1 05:53:15 10° N 05:58:35 88° E 06:03:51 10° S
IRIDIUM 114 4.3 05:56:09 10° N 06:01:23 80° W 06:06:35 10° S
Okean 3 4.4 06:01:27 10° NNW 06:04:58 27° W 06:08:30 10° SSW
Cosmos 1486 Rocket 4.2 06:01:48 10° NNW 06:07:09 80° ENE 06:12:25 10° SSE
ATLAS CENTAUR R/B 1.7 06:03:50 10° NW 06:08:08 62° NE 06:12:05 10° SE
CZ-2C R/B 3.9 06:03:35 10° SE 06:08:27 39° ENE 06:13:15 10° N
SAR-Lupe-2 3.5 06:05:56 10° S 06:09:31 73° WSW 06:13:08 10° NNW
Cosmos 1733 Rocket 3.3 06:05:33 10° SSW 06:09:41 45° WNW 06:13:52 10° N
ATLAS 5 CENTAUR R/B 3.6 06:06:15 10° NW 06:09:43 19° N 06:13:30 10° NE
IRIDIUM 103 4.3 06:05:20 10° N 06:10:32 67° W 06:15:42 10° S
SMAP 3.1 06:07:12 10° N 06:11:48 59° WNW 06:16:22 10° SSW
Meteor 1-5 Rocket 4.4 06:09:28 10° SSW 06:15:19 58° WNW 06:21:06 10° N
Cosmos 371 Rocket 3.4 06:10:40 10° SW 06:15:26 57° WNW 06:20:16 10° NNE
Okean-O 2.7 06:11:09 10° NNE 06:15:37 88° E 06:20:03 10° SSW
Meteor 2-4 Rocket 4.4 06:10:53 10° NNW 06:15:43 32° W 06:20:26 10° SSW
CORIOLIS 4.1 06:12:06 10° NNE 06:17:32 75° WNW 06:22:54 10° SSW
ALOS 3.7 06:17:31 10° NNW 06:20:34 18° WNW 06:23:37 10° W
CZ-4 R/B 2.3 06:17:01 10° NNE 06:20:50 53° E 06:24:40 10° S
Cosmos 44 3.2 06:17:44 10° SW 06:22:21 58° NW 06:26:48 10° NE
Cosmos 1340 4.3 06:22:07 10° W 06:24:23 15° WNW 06:26:38 10° NNW
Envisat 3.0 06:19:38 10° NNE 06:24:45 86° WNW 06:29:50 10° SSW
